Holland, MI

5:59 AM EDT on September 23, 2019 (GMT -0400)
Tulip City

Weather History for KBIV - August, 2019

Change the Weather History Date:

Saturday, August 24, 2019

  Actual Average Record
Temperature  
Mean Temperature 63 °F 70 °F  
Max Temperature 75 °F 80 °F 94 °F (1948)
Min Temperature 50 °F 60 °F 39 °F (1965)
Degree Days  
Heating Degree Days 2 0  
Month to date heating degree days 2 0  
Since 1 June heating degree days 49 54  
Since 1 July heating degree days 2 6  
Cooling Degree Days 0 5  
Month to date cooling degree days 153 159  
Year to date cooling degree days 557 582  
Since 1 June cooling degree days 553 540  
Growing Degree Days 13 (Base 50)    
Moisture  
Dew Point 52 °F    
Average Humidity 67    
Maximum Humidity 96    
Minimum Humidity 43    
Precipitation  
Precipitation 0.00 in 0.12 in 1.25 in (1972)
Month to date precipitation 1.34 2.72  
Year to date precipitation 21.89 22.36  
Sea Level Pressure  
Sea Level Pressure 30.28 in    
Wind  
Wind Speed 5 mph ()    
Max Wind Speed 17 mph    
Max Gust Speed 24 mph    
Visibility 10.0 miles    
Events      
T = Trace of Precipitation, MM = Missing Value Source: Averaged Metar Reports

Daily Weather History Graph

Daily Weather History Graph

Search for Another Location

Airport or City:

Astronomy

Aug. 24, 2019 Rise Set
Actual Time 7:00 AM EDT 8:32 PM EDT
Civil Twilight 6:30 AM EDT 9:02 PM EDT
Nautical Twilight 5:54 AM EDT 9:37 PM EDT
Astronomical Twilight 5:16 AM EDT 10:16 PM EDT
Moon 12:50 AM EDT (8/24) 3:51 PM EDT (8/24)
Length of Visible Light 14h 31m
Length of Day
13h 32m
Last Quarter, 39% of the Moon is Illuminated
Aug 24
Last Quarter
Aug 30
New
Sep 5
First Quarter
Sep 14
Full
Sep 21
Last Quarter

Hourly Weather History & Observations

Time (EDT) Temp. Dew Point Humidity Pressure Visibility Wind Dir Wind Speed Gust Speed Precip Events Conditions
12:53 AM 57.9 °F 52.0 °F 81% 30.26 in 10.0 mi East 3.5 mph - N/A   Clear
1:53 AM 57.0 °F 51.1 °F 81% 30.26 in 10.0 mi East 4.6 mph - N/A   Clear
2:53 AM 55.0 °F 51.1 °F 86% 30.27 in 10.0 mi Calm Calm - N/A   Clear
3:53 AM 53.1 °F 51.1 °F 93% 30.28 in 10.0 mi ENE 3.5 mph - N/A   Clear
4:53 AM 54.0 °F 50.0 °F 86% 30.30 in 10.0 mi ENE 3.5 mph - N/A   Clear
5:53 AM 52.0 °F 50.0 °F 93% 30.31 in 10.0 mi East 3.5 mph - N/A   Clear
6:53 AM 51.1 °F 48.9 °F 92% 30.33 in 10.0 mi East 3.5 mph - N/A   Clear
7:53 AM 53.1 °F 51.1 °F 93% 30.34 in 10.0 mi East 3.5 mph - N/A   Clear
8:53 AM 60.1 °F 53.1 °F 78% 30.33 in 10.0 mi East 5.8 mph - N/A   Clear
9:53 AM 64.9 °F 53.1 °F 65% 30.32 in 10.0 mi East 8.1 mph - N/A   Clear
10:53 AM 69.1 °F 52.0 °F 54% 30.32 in 10.0 mi East 13.8 mph - N/A   Clear
11:53 AM 71.1 °F 51.1 °F 49% 30.32 in 10.0 mi East 12.7 mph 23.0 mph N/A   Clear
12:53 PM 73.0 °F 52.0 °F 48% 30.30 in 10.0 mi East 11.5 mph - N/A   Clear
1:53 PM 73.9 °F 52.0 °F 46% 30.29 in 10.0 mi East 13.8 mph 19.6 mph N/A   Clear
2:53 PM 75.0 °F 53.1 °F 46% 30.28 in 10.0 mi ENE 9.2 mph 18.4 mph N/A   Partly Cloudy
3:53 PM 75.9 °F 53.1 °F 45% 30.26 in 10.0 mi ESE 10.4 mph - N/A   Clear
4:53 PM 75.0 °F 52.0 °F 44% 30.24 in 10.0 mi East 10.4 mph 19.6 mph N/A   Clear
6:53 PM 73.9 °F 53.1 °F 48% 30.24 in 10.0 mi East 8.1 mph - N/A   Clear
7:53 PM 72.0 °F 52.0 °F 49% 30.24 in 10.0 mi East 6.9 mph - N/A   Clear
8:53 PM 66.9 °F 53.1 °F 61% 30.23 in 10.0 mi East 4.6 mph - N/A   Clear
9:53 PM 66.0 °F 53.1 °F 63% 30.25 in 10.0 mi East 4.6 mph - N/A   Clear
10:53 PM 64.0 °F 53.1 °F 67% 30.24 in 10.0 mi East 5.8 mph - N/A   Clear
11:53 PM 62.1 °F 53.1 °F 72% 30.23 in 10.0 mi East 6.9 mph - N/A   Clear